Regional Weather Roundup
Issued by NWS

Home | Current Version | Previous Version | Graphics & Text | Print | Product List | Glossary On
Versions: 1 2 3 4 5 6 7 8 9 10 11 12 13 14 15 16 17 18 19 20 21 22 23 24 25 26 27 28 29 30 31 32 33 34 35 36 37 38 39 40 41 42 43 44 45 46 47 48 49 50
000
ASUS43 KLOT 232009
RWRIL

ILLINOIS REGIONAL WEATHER ROUNDUP
NATIONAL WEATHER SERVICE CHICAGO/ROMEOVILLE IL
300 PM CDT FRI JUN 23 2017

NOTE: "FAIR" INDICATES FEW OR NO CLOUDS BELOW 12,000 FEET WITH NO
SIGNIFICANT WEATHER AND/OR OBSTRUCTIONS TO VISIBILITY.

* THESE STATIONS ARE NOT UNDER NWS QUALITY CONTROL. THEY ALSO MAY NOT
  REPORT WEATHER SUCH AS PRECIPITATION OR FOG.

ILZ001-002-007-009-015-016-024-232100-
NORTHWEST ILLINOIS

CITY           SKY/WX    TMP DP  RH WIND       PRES   REMARKS
MOLINE         CLOUDY    82  52  35 W15       29.76S HX  81
STERLING*      SUNNY     78  57  48 W13G23    29.75F
SAVANNA*       PTSUNNY   80  53  39 W15G22    29.75R HX  80
$$

ILZ003-004-008-010-011-017-018-232100-
NORTH CENTRAL ILLINOIS

CITY           SKY/WX    TMP DP  RH WIND       PRES   REMARKS
ROCKFORD       PTSUNNY   81  52  36 NW18G24   29.73F HX  80
FREEPORT*      SUNNY     77  51  41 W13G18    29.75S
ROCHELLE*      PTSUNNY   79  56  46 W14       29.74F
DE KALB*       MOSUNNY   79  52  39 NW13      29.74F
PERU*          MOSUNNY   79  53  40 NW16      29.76R
$$

ILZ005-006-012>014-019>023-232100-
NORTHEAST ILLINOIS

CITY           SKY/WX    TMP DP  RH WIND       PRES   REMARKS
CHICAGO-OHARE  MOSUNNY   82  45  27 NW14      29.70F HX  80
CHICAGO-MIDWAY MOSUNNY   82  45  27 NW22G28   29.71S HX  80
AURORA         MOSUNNY   80  55  42 NW14G24   29.73F HX  80
LANSING*       CLOUDY    79  51  37 NE9       29.71S
JOLIET*        SUNNY     82  49  31 N12       29.73R HX  81
WAUKEGAN       SUNNY     80  47  31 NW7G17    29.69F
DUPAGE AIRPORT SUNNY     80  50  34 NW14      29.72S HX  80
WHEELING       SUNNY     81  46  29 NW15G21   29.71F HX  80
MORRIS*        SUNNY     81  52  36 NW7       29.72S HX  80
ROMEOVILLE*    SUNNY     81  44  27 N15       29.73R
NORTHERLY ISL    N/A     73  59  61 CALM        N/A
$$

LMZ740>746-232100-
SOUTHERN LAKE MICHIGAN

STATION/POSITION SKY/WX   TEMP    WIND        PRES    VSBY  WAVE
                          AIR SEA DIR/SP/G                  HT/PER
                          (F)     (DEG/KT/KT) (MB)    (MI)  (FT/S)
SOUTHERN BUOY              64 62  260/  6/  6 1005.6          1
WILMETTE HARBOR            73 68  350/  2/  2   N/A           1
HARRISON CRIB              72      30/  9/ 10   N/A
BURNHAM HARBOR             73                   N/A
CALUMET HARBOR             72      50/  5/  7 1005.9S
BURNS HARBOR               70      CALM  /  2 1007.1S
MICHIGAN CITY              67     250/  4/  4   N/A
MICHIGAN CITY 6N           68 68  270/  2/  4   N/A           1/ 3
ST. JOSEPH                 68 69  330/  6/  8 1006.1          2/ 3
$$

ILZ025>027-034>036-040-047-049-050-058-095>099-232100-
WEST-CENTRAL ILLINOIS

CITY           SKY/WX    TMP DP  RH WIND       PRES   REMARKS
QUINCY         MOSUNNY   82  54  37 NW17      29.82R HX  81
GALESBURG*     MOSUNNY   79  57  46 NW10      29.80R HX  80
MACOMB*        MOSUNNY   80  55  42 NW13      29.83R HX  80
JACKSONVILLE*  SUNNY     83  50  32 NW14G21   29.78R HX  81
PITTSFIELD*    MOSUNNY   81  54  39 NW13      29.82R HX  81
$$

ILZ028>032-037-038-041>044-048-051>054-059>061-232100-
CENTRAL ILLINOIS

CITY           SKY/WX    TMP DP  RH WIND       PRES   REMARKS
PONTIAC        SUNNY     80  55  41 NW13G20   29.75S HX  80
BLOOMINGTON    SUNNY     81  52  36 N20       29.77R HX  80
DECATUR        CLOUDY    81  58  45 NE17      29.75R HX  81
PEORIA         SUNNY     82  52  35 N7        29.77R HX  81
LACON*         MOSUNNY   80  56  42 N8        29.75S HX  80
LINCOLN*       SUNNY     83  55  38 N10G16    29.76R HX  82
SPRINGFIELD    SUNNY     85  56  37 N13G21    29.77R HX  84
TAYLORVILLE    SUNNY     81  57  43 N17       29.76R HX  81
$$

ILZ033-039-045-046-055>057-062-063-232100-
EAST-CENTRAL ILLINOIS

CITY           SKY/WX    TMP DP  RH WIND       PRES   REMARKS
CHAMPAIGN      CLOUDY    80  61  52 N13G20    29.75R HX  81
RANTOUL*       CLOUDY    81  56  42 N15       29.75R HX  81
MATTOON        CLOUDY    77  71  82 N15       29.72R
PARIS*         CLOUDY    73  69  88 N6        29.74R
$$

ILZ079-100>102-232100-
SOUTHWEST ILLINOIS

CITY           SKY/WX    TMP DP  RH WIND       PRES   REMARKS
ALTON          PTSUNNY   81  61  50 N17G25    29.76R HX  81
BELLEVILLE     PTSUNNY   84  68  58 NW17G25   29.75R HX  87
CAHOKIA*       MOSUNNY   86  59  39 NW25G31   29.76R HX  85
SPARTA*        PTSUNNY   86  71  62 NW16G23   29.72R HX  91
$$

ILZ064>066-069>071-074>076-080>082-084>086-088>090-092>094-232100-
SOUTH-CENTRAL ILLINOIS

CITY           SKY/WX    TMP DP  RH WIND       PRES   REMARKS
CARBONDALE     PTSUNNY   83  77  82 W7        29.69S HX  92
CAIRO*         MOSUNNY   82  75  81 W7        29.70R HX  88
EFFINGHAM*     CLOUDY    76  74  96 N3        29.72S
MARION         PTSUNNY   82  79  89 W8        29.70R HX  93
MT. VERNON     CLOUDY    82  75  79 VRB3      29.68S HX  89
CENTRALIA*     PTSUNNY   81  77  86 N16G23    29.69R HX  88
SALEM*         CLOUDY    79  74  85 N8        29.70R HX  82
METROPOLIS*    CLOUDY    82  75  81 W8        29.70R HX  88
$$

ILZ067-068-072-073-078-083-087-091-232100-
SOUTHEAST ILLINOIS

CITY           SKY/WX    TMP DP  RH WIND       PRES   REMARKS
LAWRENCEVILLE  LGT RAIN  74  74 100 S8        29.68F FOG
FLORA*         CLOUDY    82  76  82 W10       29.69R HX  88
FAIRFIELD*     CLOUDY    77  74  90 CALM      29.68S
HARRISBURG*    CLOUDY    82  76  80 NW12      29.69R HX  90
ROBINSON*      LGT RAIN  73  72  96 CALM      29.70R
CARMI*         CLOUDY    79  75  87 W6        29.67S HX  83
$$

ABBREVIATIONS USED IN REMARKS
   TC - TEMPERATURE IN CELSIUS
  WCI - WIND CHILL INDEX
   HX - HEAT INDEX
  VSB - VISIBILITY
$$





USA.gov is the U.S. government's official web portal to all federal, state and local government web resources and services.